Weather History for Lafayette, IN

Change the Weather History Date:

Wednesday, November 7, 2012

  Actual Average Record
Temperature  
Mean Temperature 41 °F 47 °F  
Max Temperature 49 °F 56 °F 71 °F (2001)
Min Temperature 33 °F 38 °F 13 °F (1991)
Degree Days  
Heating Degree Days 24 18  
Month to date heating degree days 191 120  
Since 1 July heating degree days 772 554  
Cooling Degree Days 0 0  
Month to date cooling degree days 0 0  
Year to date cooling degree days 1181 982  
Moisture  
Dew Point 36 °F    
Average Humidity 83    
Maximum Humidity 100    
Minimum Humidity 65    
Precipitation  
Precipitation 0.03 in 0.09 in 0.49 in (1968)
Month to date precipitation 0.19 0.64  
Year to date precipitation 27.09 31.74  
Sea Level Pressure  
Sea Level Pressure 30.04 in    
Wind  
Wind Speed 4 mph (NE)    
Max Wind Speed 10 mph    
Max Gust Speed 13 mph    
Visibility 4 miles    
Events Fog , Rain    
T = Trace of Precipitation, MM = Missing Value Source: NWS Daily Summary

Daily Weather History Graph

Daily Weather History Graph

Search for Another Location

Airport:

Trip Planner

Search our weather history database for the weather conditions in past years. The results will help you decide how hot, cold, wet, or windy it might be!

Date:

Astronomy

Nov. 07, 2012 Rise Set
Actual Time 7:25 AM EST 5:37 PM EST
Civil Twilight 6:56 AM EST 6:05 PM EST
Nautical Twilight 6:23 AM EST 6:38 PM EST
Astronomical Twilight 5:51 AM EST 7:10 PM EST
Moon 12:17 AM EST (11/7) 1:47 PM EST (11/7)
Length of Visible Light 11h 09m
Length of Day
10h 12m
Last Quarter, 43% of the Moon is Illuminated
Nov 7
Last Quarter
Nov 13
New
Nov 20
First Quarter
Nov 28
Full
Dec 6
Last Quarter

Hourly Weather History & Observations

Time (EST) Temp. Windchill Dew Point Humidity Pressure Visibility Wind Dir Wind Speed Gust Speed Precip Events Conditions
12:54 AM 39.0 °F - 37.0 °F 93% 29.91 in 5.0 mi Calm Calm - 0.01 in Rain Light Rain
1:54 AM 37.9 °F - 37.0 °F 97% 29.91 in 4.0 mi Calm Calm - 0.01 in Rain Light Rain
2:34 AM 37.4 °F 34.9 °F 37.4 °F 100% 29.90 in 4.0 mi ESE 3.5 mph - 0.01 in Rain Light Rain
2:54 AM 37.9 °F 35.5 °F 37.0 °F 97% 29.91 in 3.0 mi ESE 3.5 mph - 0.01 in   Overcast
3:54 AM 39.0 °F 36.8 °F 37.0 °F 93% 29.91 in 3.0 mi ESE 3.5 mph - N/A   Overcast
4:54 AM 39.0 °F 34.8 °F 37.0 °F 93% 29.91 in 4.0 mi East 5.8 mph - N/A   Overcast
5:54 AM 39.0 °F 35.7 °F 37.0 °F 93% 29.93 in 4.0 mi ENE 4.6 mph - N/A   Overcast
6:54 AM 39.0 °F 34.8 °F 37.0 °F 93% 29.95 in 4.0 mi ENE 5.8 mph - N/A   Overcast
7:22 AM 39.2 °F 34.2 °F 37.4 °F 93% 29.95 in 2.0 mi ENE 6.9 mph - N/A   Overcast
7:39 AM 39.2 °F 33.6 °F 37.4 °F 93% 29.96 in 2.0 mi ENE 8.1 mph - N/A   Overcast
7:54 AM 39.0 °F 34.8 °F 37.0 °F 93% 29.97 in 2.0 mi ENE 5.8 mph - N/A   Overcast
8:54 AM 39.9 °F 35.8 °F 37.9 °F 93% 30.00 in 2.0 mi NE 5.8 mph - N/A   Overcast
9:26 AM 39.2 °F 35.0 °F 37.4 °F 93% 30.00 in 2.5 mi ENE 5.8 mph - N/A   Overcast
9:54 AM 41.0 °F 39.0 °F 37.9 °F 89% 30.02 in 2.0 mi ENE 3.5 mph - N/A   Overcast
10:54 AM 42.1 °F 39.2 °F 37.9 °F 85% 30.05 in 4.0 mi NNE 4.6 mph - N/A   Overcast
11:13 AM 42.8 °F 40.1 °F 37.4 °F 81% 30.04 in 4.0 mi NE 4.6 mph - N/A   Overcast
11:54 AM 43.0 °F 41.3 °F 37.9 °F 82% 30.06 in 5.0 mi NE 3.5 mph - N/A   Haze
12:54 PM 45.0 °F - 37.0 °F 74% 30.05 in 6.0 mi Calm Calm - N/A   Haze
1:37 PM 46.4 °F 42.9 °F 37.4 °F 71% 30.04 in 7.0 mi NE 6.9 mph - N/A   Mostly Cloudy
1:44 PM 46.4 °F 44.3 °F 35.6 °F 66% 30.04 in 8.0 mi NNE 4.6 mph - N/A   Scattered Clouds
1:54 PM 46.9 °F - 37.9 °F 71% 30.05 in 8.0 mi NE 6.9 mph - N/A   Mostly Cloudy
2:23 PM 46.4 °F 45.2 °F 37.4 °F 71% 30.04 in 7.0 mi North 3.5 mph - N/A   Scattered Clouds
2:54 PM 46.9 °F - 35.1 °F 63% 30.05 in 8.0 mi Calm Calm - N/A   Mostly Cloudy
3:24 PM 48.2 °F - 35.6 °F 62% 30.04 in 8.0 mi Variable 5.8 mph - N/A   Mostly Cloudy
3:33 PM 46.4 °F 43.5 °F 35.6 °F 66% 30.05 in 8.0 mi North 5.8 mph - N/A   Overcast
3:54 PM 46.0 °F 42.5 °F 37.0 °F 71% 30.07 in 7.0 mi North 6.9 mph - N/A   Overcast
4:54 PM 45.0 °F 41.8 °F 36.0 °F 71% 30.09 in 7.0 mi NNW 5.8 mph - N/A   Overcast
6:54 PM 43.0 °F 40.3 °F 37.0 °F 80% 30.12 in 8.0 mi NNW 4.6 mph - N/A   Overcast
7:54 PM 41.0 °F 35.2 °F 37.0 °F 86% 30.14 in 6.0 mi NNW 9.2 mph - N/A   Scattered Clouds
8:54 PM 39.9 °F 33.9 °F 37.0 °F 89% 30.14 in 5.0 mi NNW 9.2 mph - N/A   Clear
9:54 PM 37.0 °F - 35.1 °F 93% 30.16 in 4.0 mi Calm Calm - N/A   Clear
10:50 PM 35.6 °F - 35.6 °F 100% 30.16 in 2.5 mi Calm Calm - N/A   Clear
10:54 PM 36.0 °F - 35.1 °F 97% 30.17 in 3.0 mi Calm Calm - N/A   Clear
11:33 PM 33.8 °F - 33.8 °F 100% 30.16 in 1.8 mi Calm Calm - N/A   Clear
11:41 PM 33.8 °F - 33.8 °F 100% 30.16 in 0.8 mi Calm Calm - N/A   Mist
11:52 PM 33.8 °F 30.8 °F 32.0 °F 93% 30.16 in 0.2 mi WNW 3.5 mph - N/A Fog Fog
11:54 PM 33.1 °F 30.0 °F 32.0 °F 96% 30.17 in 0.5 mi WNW 3.5 mph - N/A Fog Fog